Regional Weather Roundup
Issued by NWS Memphis, TN

Home | Current Version | Previous Version | Text Only | Print | Product List | Glossary On
Versions: 1 2 3 4 5 6 7 8 9 10 11 12 13 14 15 16 17 18 19 20 21 22 23 24 25 26 27 28 29 30 31 32 33 34 35 36 37 38 39 40 41 42 43 44 45 46 47 48 49 50
000
ASUS44 KMEG 231310
RWRMEG
MEMPHIS CWA HOURLY WEATHER ROUNDUP
NATIONAL WEATHER SERVICE MEMPHIS TN
700 AM CST THU FEB 23 2017

...WEST TENNESSEE...

CITY           SKY/WX    TMP DP  RH WIND       PRES   REMARKS
MEMPHIS INTL   MOCLDY    55  54  96 S7        29.79F
NWS MEMPHIS      N/A     54 N/A N/A MISG        N/A
JACKSON        CLEAR     55  55 100 S6        29.82R
BOLIVAR        FOG       50  48  93 CALM      29.82R VSB 0
SAVANNAH       CLOUDY    55  55 100 S3        29.84R FOG
UNION CITY     CLEAR    N/A N/A N/A CALM      29.79R
PARIS          PTCLDY    54  54 100 S8        29.81F
HUNTINGDON     MOCLDY    57  55  94 S6        29.81S


...EASTERN ARKANSAS...

CITY           SKY/WX    TMP DP  RH WIND       PRES   REMARKS
JONESBORO      FOG       53  52  96 CALM      29.77S VSB 1/4
WEST MEMPHIS   CLOUDY    51  51 100 S7        29.78S FOG
BATESVILLE     PTCLDY    54  52  94 SE8       29.76F
NEWPORT        FOG       50  50 100 S6          N/A  VSB<1/4
WALNUT RIDGE   CLOUDY    54  50  87 S5        29.77R VSB<1/4
BLYTHEVILLE    CLEAR     53  53 100 S7        29.79S
SEARCY         FOG       51  51 100 CALM      29.79S VSB<1/4
STUTTGART      PTCLDY    54  46  76 S6        29.78S
PINE BLUFF     FOG       49  49 100 CALM      29.78S VSB 1/4
MONTICELLO     CLEAR     53  52  96 SE6       29.79R


...NORTH MISSISSIPPI...

CITY           SKY/WX    TMP DP  RH WIND       PRES   REMARKS
TUPELO         CLOUDY    53  52  96 CALM      29.85R FOG
OXFORD         CLEAR     50  50 100 SE5       29.84S
BATESVILLE     PTCLDY    46  45  97 CALM      29.83R
OLIVE BRANCH   PTCLDY   N/A N/A N/A S5        29.80
TUNICA         PTCLDY    52  52 100 SE6       29.81S
CORINTH        CLOUDY    55  54  94 SE6       29.83S
GREENWOOD      CLEAR     50  47  89 E3        29.82R
COLUMBUS       FOG       50  50  99 CALM      29.84R VSB<1/4
GOLDEN TRIANGL FOG       48  45  87 CALM      29.79S VSB 1/2


...SOUTHEAST MISSOURI...

CITY           SKY/WX    TMP DP  RH WIND       PRES   REMARKS
KENNETT        FOG       52  52 100 CALM      29.77S VSB<1/4
MALDEN         FOG       52  52 100 CALM      29.78F VSB<1/4
WEST PLAINS    FOG       53  52  96 S7        29.75S VSB 1/4
POPLAR BLUFF   FOG       52  52 100 CALM      29.76S VSB<1/4
CAPE GIRARDEAU FOG       54  53  97 S6        29.77R VSB 1/4


...NORTHWEST ALABAMA...

CITY           SKY/WX    TMP DP  RH WIND       PRES   REMARKS
MUSCLE SHOALS  FOG       52  51  97 E5        29.87R VSB 1/2


...MIDDLE TENNESSEE...

CITY           SKY/WX    TMP DP  RH WIND       PRES   REMARKS
NASHVILLE      PTCLDY    55  53  93 CALM      29.87R FOG
CLARKSVILLE    CLOUDY    58  55  90 S7        29.83S FOG
COLUMBIA       CLOUDY   N/A N/A N/A CALM      29.85R VSB 1/4


...WESTERN KENTUCKY...

CITY           SKY/WX    TMP DP  RH WIND       PRES   REMARKS
PADUCAH        PTCLDY    55  52  89 S6        29.78R
FORT CAMPBELL  CLOUDY    59  59 100 S7        29.82F


...CENTRAL ARKANSAS...

CITY           SKY/WX    TMP DP  RH WIND       PRES   REMARKS
LITTLE ROCK    FOG       49  49 100 CALM      29.77S VSB 1/16


SKY/WX REPORTED AS FAIR MEANS FEW OR NO CLOUDS BELOW
12 THOUSAND FEET.




USA.gov is the U.S. government's official web portal to all federal, state and local government web resources and services.